RH
80 80 81 80 81 81 81 82 82 82 82 82 82 82 82 83 83 83 83 82 80 79 77 77 77 78 79 81 82 82 82 82 80 79 78 78 80 84 88 91 92 91 88 91 93 94 95 96 95 94 93 93 93 93 94 94 94 94 94 95 95 96 96 96 96 96 96 96 97 97 97 97 97 97 98 98 98 97 97 97 96 96 95 95 94 93
83 83 82 82 83 84 84 83 84 85 85 85 84 84 83 83 84 84 84 84 83 81 79 78 77 78 79 80 82 83 84 84 83 82 80 79 79 82 85 90 93 93 91 92 93 94 95 96 95 94 93 92 91 92 94 94 94 94 94 95 95 95 95 96 96 96 96 96 96 96 96 97 97 97 97 97 97 97 97 97 96 96 95 94 94 93
85 85 84 85 85 86 86 85 86 87 87 87 87 87 86 85 85 85 85 85 84 84 82 79 78 78 78 80 81 82 84 85 85 84 82 81 80 81 83 87 91 93 93 93 93 94 95 96 96 96 94 93 91 91 92 93 94 94 94 94 94 94 94 94 95 96 96 96 96 96 96 97 97 96 96 97 97 97 97 96 96 95 94 93 93 93
90 89 88 88 88 88 88 87 88 88 89 89 90 90 90 89 88 88 87 86 85 85 85 82 79 78 78 79 80 81 82 83 83 83 83 82 82 82 83 86 90 93 94 95 95 95 95 96 97 97 96 95 94 93 92 93 93 93 93 93 93 93 92 92 93 94 95 95 96 96 96 96 96 97 96 97 97 97 97 97 96 96 94 94 94 95
93 92 91 91 91 90 90 90 90 90 91 92 92 92 93 92 91 90 90 89 87 86 86 84 81 79 78 79 79 79 80 81 82 82 82 82 82 83 84 86 89 92 94 95 95 95 95 95 96 97 97 97 97 96 94 94 93 93 93 93 93 92 91 91 92 93 94 94 95 95 96 95 96 96 96 96 96 96 96 96 96 97 97 96 96 96
95 94 93 93 92 92 92 91 92 92 93 93 94 94 94 93 92 91 91 90 89 87 86 84 82 80 79 79 78 78 79 80 80 81 81 81 81 83 84 87 90 92 94 95 95 95 95 95 95 96 97 97 97 97 96 95 95 94 94 93 93 92 91 91 91 92 93 94 94 94 95 95 95 95 96 96 96 96 96 96 97 97 97 97 97 96
96 95 94 94 94 93 93 93 93 93 94 94 95 95 95 94 93 93 92 91 90 89 87 86 84 82 80 80 79 79 79 80 80 81 81 81 81 81 83 87 91 93 93 94 95 95 95 95 94 94 95 96 97 97 97 96 95 95 94 94 93 93 92 92 92 92 93 94 94 94 94 94 95 95 95 96 96 96 96 96 97 97 97 97 97 97
96 96 95 95 95 95 95 95 94 95 95 95 95 95 95 95 94 94 93 92 91 90 89 87 85 84 82 81 81 81 81 81 81 81 81 81 81 81 82 86 90 93 93 94 94 95 95 95 95 95 95 95 96 96 97 96 96 95 94 94 94 93 93 93 93 93 94 94 94 94 94 94 94 94 95 96 96 96 95 95 96 96 97 97 97 98
97 97 96 96 96 96 96 96 96 96 96 95 95 95 95 95 95 94 94 93 92 92 91 90 88 86 84 83 83 83 84 83 83 82 82 82 82 82 82 85 89 92 94 94 94 94 95 95 95 95 95 95 95 96 96 96 95 95 95 94 94 94 94 94 94 94 94 94 94 94 94 94 95 95 94 95 96 96 95 95 95 96 96 96 96 97
97 97 97 97 97 97 96 96 96 96 96 96 95 95 95 95 95 95 94 94 93 93 92 91 90 88 86 86 86 86 86 86 85 84 83 83 83 83 83 85 88 91 94 94 94 95 95 95 95 95 95 96 96 96 96 96 96 95 95 94 94 95 95 95 95 95 95 95 94 94 94 94 95 95 94 94 94 95 95 95 95 96 96 95 95 95
97 97 97 97 97 97 96 96 96 96 96 96 96 95 95 94 94 94 94 94 93 93 92 92 91 90 89 88 88 88 89 89 88 87 86 85 85 84 85 86 88 90 93 93 94 94 94 95 95 95 95 96 96 96 97 97 97 96 96 95 95 96 96 96 96 96 95 95 95 94 94 94 94 94 94 93 93 93 94 94 95 95 95 95 95 95
97 97 97 97 97 96 96 96 96 96 96 96 96 95 95 94 94 95 94 94 93 93 93 91 91 91 91 90 90 90 91 91 91 90 89 89 88 87 86 87 87 89 91 93 93 93 93 94 94 95 95 95 96 96 96 97 97 97 97 97 97 97 97 97 97 96 95 95 95 94 94 94 94 94 94 94 93 93 93 93 93 94 93 94 95 95
97 97 97 97 96 96 96 96 96 96 96 96 95 95 95 94 94 95 94 94 93 93 93 92 92 91 92 92 92 92 92 93 92 92 91 91 90 89 89 88 88 89 91 93 93 93 93 93 93 94 94 94 95 95 96 96 97 97 97 97 97 97 97 97 97 96 96 95 94 94 94 94 94 95 95 95 95 94 93 92 91 91 92 93 94 94
97 97 97 97 96 96 96 96 96 96 96 95 95 94 94 94 94 95 95 94 93 93 93 93 93 92 93 93 93 93 93 93 93 93 92 92 91 90 90 90 90 90 91 92 93 93 93 93 93 93 93 94 94 94 94 95 96 97 97 97 97 97 97 97 97 96 96 95 94 94 94 94 95 96 96 95 95 95 94 92 90 90 92 93 94 94
97 97 96 96 96 96 96 96 96 95 95 94 94 93 94 94 95 95 95 94 94 93 94 94 94 93 93 93 93 93 93 93 93 93 93 93 92 91 91 91 91 90 90 91 92 93 93 93 93 92 92 92 92 92 93 93 95 96 96 96 96 96 96 96 96 96 96 95 94 94 94 94 95 96 96 95 95 95 94 92 91 91 92 94 95 95
97 97 96 96 96 96 96 95 95 95 94 94 94 95 95 95 95 95 95 94 94 94 94 94 94 94 94 93 93 93 93 93 93 93 93 93 92 92 92 92 91 91 91 91 91 91 92 93 93 92 91 90 89 89 89 91 93 96 96 96 96 96 96 96 96 95 95 95 94 94 94 95 95 96 96 95 95 94 94 93 93 93 94 94 95 95
97 97 97 96 96 96 96 95 95 94 94 94 94 95 95 95 94 95 95 94 94 94 94 94 94 94 94 94 93 93 94 93 93 93 93 93 92 92 92 92 92 92 91 91 91 91 91 91 92 92 91 90 87 85 85 88 92 95 96 96 96 96 96 96 95 95 94 94 94 94 94 95 96 95 95 95 95 95 94 94 93 93 94 94 94 95
97 97 97 96 96 96 95 95 95 95 95 95 95 95 95 94 94 95 95 94 94 94 94 94 94 94 94 93 93 93 93 93 93 93 93 93 92 92 92 93 92 92 91 91 91 90 90 90 90 90 90 90 88 86 84 85 89 92 95 95 95 95 95 95 95 94 94 93 93 94 94 95 95 95 94 95 95 94 94 94 94 94 94 94 94 95
97 97 96 96 96 96 95 95 96 96 95 95 95 95 95 95 95 95 95 94 94 94 94 94 94 94 94 94 93 92 93 92 93 93 93 93 92 92 92 92 92 91 91 90 90 89 89 88 87 87 88 89 89 88 86 86 87 89 92 93 94 94 94 94 94 94 94 93 93 92 94 94 95 95 95 95 94 93 94 94 94 94 94 95 95 95
97 97 97 96 96 96 96 95 95 95 95 94 94 94 95 95 95 95 94 94 94 94 94 94 94 94 94 94 92 92 92 92 93 93 93 93 93 92 92 92 92 92 90 89 88 87 88 87 87 86 86 86 87 88 87 85 85 85 87 89 91 92 93 92 92 93 93 94 93 92 92 92 94 95 95 95 94 94 94 94 94 94 94 95 95 95
97 97 97 96 96 96 96 95 95 94 95 95 95 95 95 95 95 94 94 93 94 94 94 94 94 94 94 93 93 93 92 92 93 93 93 93 93 93 93 93 92 92 90 88 86 85 86 86 86 86 85 85 85 85 85 85 84 83 82 83 84 86 88 89 89 89 90 91 92 92 91 89 91 93 95 94 94 94 94 94 94 93 93 94 95 95
96 97 97 96 96 96 95 95 95 95 95 95 95 95 94 94 94 94 93 93 94 94 94 93 93 93 93 93 93 93 93 93 93 93 93 93 93 93 93 93 93 92 91 88 86 85 85 85 85 85 85 85 84 83 82 82 82 81 80 80 79 79 81 82 83 84 85 89 91 92 92 90 90 93 95 95 95 95 94 94 93 93 93 93 94 94
95 96 97 97 97 96 96 96 95 95 95 95 95 94 93 92 92 92 92 93 93 93 93 93 93 93 93 94 94 94 93 93 93 93 93 93 93 93 93 93 93 92 91 89 87 86 85 85 84 84 84 83 83 82 81 80 80 80 79 79 79 78 78 79 80 81 84 87 90 93 93 93 93 94 95 95 95 95 95 94 93 93 93 94 94 94
93 95 96 96 97 96 96 96 96 95 95 95 94 94 93 92 92 92 92 93 93 94 94 94 94 94 94 94 94 94 94 94 94 94 93 93 93 93 93 93 93 93 92 90 89 87 86 85 85 84 84 83 82 81 81 81 81 81 80 80 80 80 80 81 83 85 87 89 91 93 94 94 94 94 95 95 95 95 94 94 93 93 93 93 93 93
89 91 93 95 96 96 96 96 96 96 96 96 95 95 95 94 94 94 95 94 94 94 94 94 94 94 94 94 94 94 94 93 94 94 93 93 93 93 93 93 93 93 92 91 90 89 89 88 87 86 85 83 82 81 80 81 82 83 83 84 84 84 86 88 90 91 93 93 93 93 94 94 94 94 95 95 95 95 94 93 93 92 93 93 93 93
83 84 85 89 93 96 96 96 96 96 96 96 96 96 96 96 95 95 94 94 94 94 94 93 93 94 94 94 94 94 93 93 94 94 93 93 94 94 93 93 93 93 93 92 92 92 91 90 89 88 87 85 83 81 80 81 83 84 85 86 88 89 90 92 93 94 94 94 94 94 94 94 94 94 94 95 95 94 93 93 92 92 92 93 93 92
80 80 80 85 91 95 96 96 95 95 95 95 95 95 96 96 95 94 94 95 95 94 93 94 94 94 94 94 94 94 93 94 94 94 94 93 93 93 93 93 93 93 93 93 93 93 92 92 91 90 90 88 85 83 81 81 83 85 87 88 90 91 92 93 93 94 94 94 94 94 94 94 94 94 94 94 94 93 93 92 92 92 93 93 92 91
85 85 84 85 89 93 96 97 97 96 96 96 96 96 96 96 95 94 95 95 95 94 94 94 94 94 94 94 93 93 93 94 94 94 94 93 93 93 93 93 93 93 93 93 93 93 93 92 92 92 91 90 88 85 82 81 82 85 87 89 91 92 93 93 93 94 94 94 94 94 94 94 94 94 94 93 93 93 92 92 92 92 93 92 92 91
89 89 89 87 87 89 94 95 96 96 96 96 96 96 95 96 96 95 94 95 94 94 94 94 94 94 94 94 93 93 93 93 93 94 93 93 93 93 93 93 93 93 93 93 93 93 93 93 92 92 91 91 90 87 83 81 82 84 87 89 90 92 93 93 93 93 94 94 94 94 94 94 94 94 93 92 92 92 92 91 92 92 93 92 92 92
87 86 86 86 86 88 91 93 95 95 96 96 95 94 93 95 96 95 94 95 95 95 95 95 94 94 94 94 93 93 93 93 93 93 93 93 93 93 93 93 93 93 93 93 93 93 93 93 92 92 91 91 91 90 86 83 82 83 85 87 89 91 92 92 93 93 93 93 93 93 93 93 93 93 92 92 92 92 92 91 92 93 93 93 93 93
88 86 85 84 84 85 88 91 93 94 95 95 95 94 92 94 95 96 95 95 95 95 95 95 94 94 94 93 93 93 91 91 92 93 93 93 93 93 93 93 93 93 93 93 92 92 92 91 92 92 91 91 92 91 90 86 84 83 84 86 88 90 91 92 92 92 92 92 93 93 92 92 92 92 92 92 92 92 92 92 92 93 93 93 93 93
89 88 87 86 85 86 87 88 89 91 93 94 95 95 94 94 94 95 96 96 95 95 95 94 94 94 94 93 93 93 91 89 90 92 93 92 92 93 93 93 93 93 93 93 93 92 92 90 91 93 92 92 92 92 92 90 87 85 84 85 88 90 91 92 92 92 92 92 92 92 92 91 91 92 92 92 92 92 92 92 92 93 93 93 93 94
92 91 90 90 90 90 89 88 87 87 88 90 92 93 94 94 94 94 95 96 96 95 95 95 94 94 94 94 94 93 92 90 91 92 93 91 92 92 92 92 92 93 93 93 93 93 92 92 92 93 93 93 93 93 92 92 90 87 85 85 86 89 91 92 92 93 93 93 93 93 92 92 92 92 92 92 92 92 92 92 92 93 93 93 93 94
95 94 94 94 94 94 92 89 87 86 85 86 87 88 90 93 94 94 93 95 96 96 95 95 95 94 94 94 94 94 94 92 92 92 93 91 91 91 92 91 92 93 93 93 93 93 93 93 93 93 93 93 93 93 92 92 92 90 88 85 84 85 87 90 91 93 93 93 93 93 93 93 93 92 92 93 93 92 92 92 92 92 93 93 93 94
96 96 96 96 95 94 93 91 89 87 85 84 83 83 85 88 91 93 94 95 95 95 95 95 95 95 94 94 94 94 94 93 93 93 93 92 91 91 91 91 92 93 93 93 93 93 93 93 93 93 93 93 93 93 92 92 92 92 91 87 85 82 81 82 85 89 92 93 93 93 93 93 93 92 92 93 93 92 92 92 92 92 92 92 93 94
97 96 96 96 96 95 94 93 92 91 89 87 85 83 83 83 85 87 91 94 95 95 94 94 93 94 94 94 94 94 94 93 93 93 93 93 92 92 92 92 92 92 92 93 93 93 93 93 93 93 93 93 93 93 92 92 92 92 92 90 87 84 80 77 76 79 84 89 91 92 92 92 92 92 92 91 90 90 90 91 91 91 91 92 93 94
97 97 96 97 96 96 95 95 94 93 93 91 89 87 85 83 83 83 86 90 93 94 94 93 92 92 93 94 94 94 94 94 93 93 93 93 93 92 92 91 91 91 91 92 93 94 93 93 93 93 93 93 93 92 92 92 92 92 92 92 90 88 84 79 74 72 73 78 82 84 86 87 88 88 87 84 82 82 82 84 85 86 88 90 91 93
97 97 96 97 97 96 96 95 94 93 92 92 91 90 88 87 85 85 86 88 91 93 95 94 93 92 92 92 93 94 94 94 93 93 93 93 93 93 92 92 92 92 91 91 92 93 93 93 93 93 93 93 93 92 92 93 93 93 92 92 91 89 87 84 79 75 71 72 73 73 74 76 78 79 80 77 76 75 75 74 73 73 74 79 84 87
97 97 96 96 96 96 96 95 94 93 93 93 92 91 91 90 90 90 90 91 92 94 95 95 94 93 92 92 92 93 93 93 93 93 93 93 93 93 93 93 93 93 92 92 92 92 93 93 93 93 93 93 93 92 92 93 93 93 92 92 92 91 90 87 85 81 76 74 73 73 74 75 77 79 81 80 80 79 78 75 71 67 65 68 72 75
97 97 97 97 96 96 96 95 95 94 94 93 93 93 93 93 93 92 92 93 93 94 95 94 94 94 93 92 92 92 92 93 93 93 93 93 93 93 93 93 93 93 93 93 93 93 93 93 93 93 93 93 92 92 93 93 93 93 93 93 93 93 92 89 88 85 82 80 79 79 80 82 84 86 86 86 85 84 83 80 77 73 70 69 69 70
97 97 97 97 96 96 96 95 95 95 95 95 95 94 94 94 94 93 93 93 94 95 95 94 94 94 94 93 92 91 91 91 92 93 93 93 93 93 93 93 93 93 93 93 93 93 93 93 93 93 93 93 92 92 93 93 93 93 93 93 93 92 92 90 89 87 85 84 83 83 84 86 87 88 88 87 86 85 85 83 82 81 79 76 74 73
97 97 96 96 96 96 96 96 96 96 95 95 95 95 95 94 94 94 94 94 94 94 95 94 94 94 94 93 93 91 90 89 88 88 90 92 93 93 93 93 93 93 93 93 93 93 94 93 93 94 94 93 93 93 93 93 93 93 93 93 93 93 93 93 91 89 87 85 84 84 85 86 87 87 87 87 87 87 87 86 85 84 83 82 81 79
96 96 96 96 96 96 96 96 96 96 96 96 95 95 94 94 94 94 94 94 94 94 94 94 94 94 94 94 93 93 92 89 86 85 86 88 90 92 93 93 93 93 93 92 92 92 93 93 93 93 93 94 93 93 93 93 93 93 93 93 93 93 93 93 93 92 90 87 85 85 85 85 86 87 88 89 89 88 89 89 88 87 86 85 84 84
96 96 96 96 96 96 96 96 96 96 96 96 95 95 95 94 94 94 94 94 94 94 94 94 94 94 93 93 93 93 93 91 88 86 86 87 88 90 92 93 93 93 93 92 92 93 93 93 93 93 93 94 93 93 93 93 93 93 93 93 93 93 93 93 93 93 93 91 89 87 86 86 87 89 90 91 91 91 91 90 90 89 90 88 87 85
95 95 95 96 96 96 96 97 97 96 96 96 96 95 95 94 94 94 94 94 94 94 94 94 93 93 92 93 94 93 94 93 92 90 88 88 88 89 90 92 92 92 92 93 93 93 93 93 93 93 93 93 93 94 93 93 93 93 93 93 93 93 93 93 93 93 93 93 92 90 89 89 90 91 92 92 92 92 91 92 91 91 90 89 88 87
94 95 95 95 96 96 96 96 96 96 96 96 96 95 95 95 94 94 94 94 94 94 94 93 93 93 93 93 94 93 93 93 93 93 92 90 90 90 91 92 92 92 92 93 93 93 93 93 93 93 93 93 93 93 93 93 93 93 93 93 93 93 93 93 93 93 93 93 92 92 92 92 92 92 92 92 92 92 91 92 91 90 89 89 88 88
94 94 94 94 95 95 96 96 96 96 96 96 96 96 95 95 94 94 94 94 94 94 93 93 93 93 94 94 94 93 93 93 93 93 93 93 92 91 92 92 93 93 93 93 93 93 93 93 93 92 93 92 93 93 93 93 93 93 93 93 93 93 93 93 93 93 93 93 93 93 93 92 92 92 92 92 92 92 92 92 91 90 89 89 88 88
94 94 94 93 94 94 95 95 95 96 96 96 96 95 95 95 95 94 94 94 94 94 93 93 93 93 94 94 94 94 93 93 93 93 93 93 93 92 92 92 92 92 92 92 92 92 93 93 92 92 92 92 93 93 93 93 93 93 93 93 93 93 93 93 93 93 93 93 93 92 92 92 92 92 92 92 92 92 92 92 91 90 89 89 88 88
94 94 94 94 94 94 94 94 95 95 96 96 95 95 95 95 95 94 94 94 94 93 93 93 93 94 94 94 94 93 93 93 93 93 93 93 93 93 93 93 92 92 91 91 91 91 92 92 92 93 93 93 93 93 93 93 93 93 93 93 93 93 93 93 93 93 92 93 92 92 92 92 92 92 92 93 93 93 92 92 91 91 90 89 88 88
94 94 94 94 94 94 94 94 94 95 95 95 95 95 95 95 95 94 94 94 94 93 93 94 94 93 94 94 94 93 93 93 93 93 93 93 93 93 93 93 92 92 91 90 90 90 90 91 92 93 93 93 93 93 93 93 93 93 93 93 93 93 93 93 93 92 92 92 92 92 92 92 92 92 92 92 93 93 93 92 92 91 90 89 89 89
94 94 94 94 94 94 94 94 94 94 95 95 95 95 95 95 94 94 93 93 93 93 94 94 94 94 94 94 94 94 93 93 93 93 94 93 93 93 93 93 92 92 91 90 90 90 90 91 92 93 93 92 92 92 93 92 93 93 93 93 93 93 93 93 93 92 92 92 92 92 92 92 92 92 92 92 92 93 93 92 92 91 90 90 90 89
Wind_Speed
34 32 29 28 28 29 29 28 28 29 30 29 27 27 28 29 29 30 31 33 33 34 34 35 35 36 36 36 36 37 37 37 37 37 36 35 34 33 33 33 33 32 33 33 34 35 36 37 38 39 40 40 40 40 40 40 41 41 40 40 39 39 38 38 38 37 37 38 38 38 37 36 35 35 34 33 33 32 32 31 30 30 30 30 29 29
33 32 30 28 28 28 29 29 28 27 29 28 27 26 27 28 27 26 27 29 30 32 33 33 34 35 35 35 35 35 36 36 36 36 36 36 35 34 33 33 33 33 33 33 34 36 37 37 38 39 40 40 40 40 40 41 41 41 41 40 40 39 38 38 37 37 37 38 38 37 37 36 35 34 33 33 32 32 32 31 31 31 30 30 30 29
33 32 31 28 27 27 28 28 27 27 29 29 28 27 28 28 27 26 25 25 27 29 31 33 34 35 35 35 35 35 36 36 36 36 36 36 35 34 34 34 33 33 33 33 34 36 37 37 37 38 39 40 40 41 41 41 41 41 41 41 40 39 39 38 38 38 37 38 38 37 37 36 35 34 34 33 32 32 32 31 31 31 31 30 29 29
34 33 32 30 28 28 30 29 28 28 28 29 30 29 28 27 27 26 25 26 26 27 29 32 34 36 36 36 36 36 36 36 36 36 36 36 35 35 34 34 34 34 33 33 33 35 37 37 37 38 38 39 40 41 41 41 42 41 41 41 40 40 39 39 38 38 38 38 38 38 37 36 35 35 34 33 33 32 32 32 31 31 31 30 30 29
36 34 32 29 28 28 30 29 28 28 29 29 30 30 29 28 28 28 27 27 27 28 29 32 35 36 37 37 37 37 37 37 37 37 36 36 35 35 34 34 35 35 34 33 33 34 36 37 38 38 38 39 39 40 41 42 42 42 41 41 40 40 40 39 39 39 39 38 38 38 37 36 36 35 34 34 33 33 32 32 32 31 31 31 31 31
35 33 32 29 28 29 29 29 29 29 29 29 29 30 30 30 30 30 30 29 29 29 30 32 35 37 38 38 38 39 38 38 37 37 37 36 35 35 34 34 35 36 35 34 34 34 35 37 38 39 38 38 39 40 41 41 42 42 42 41 40 40 40 40 39 39 39 39 39 38 37 37 36 35 35 34 34 33 33 33 32 32 31 31 32 32
35 32 31 30 30 30 30 31 30 29 28 29 29 30 31 31 32 32 33 32 32 31 31 33 35 37 38 39 39 39 39 39 38 38 37 37 36 35 34 34 35 36 36 36 35 34 34 36 37 39 39 39 39 39 40 41 41 41 41 41 40 40 40 40 40 39 39 39 39 38 38 37 36 36 35 35 34 34 34 33 33 33 32 32 32 32
36 34 32 31 31 31 31 32 31 29 28 30 30 31 31 32 32 32 33 33 33 33 33 34 35 37 37 38 38 38 38 38 38 38 38 37 37 36 35 34 35 35 36 36 36 35 35 35 36 38 39 40 39 39 40 40 41 41 41 41 40 40 40 40 40 40 40 39 39 38 38 37 37 36 35 35 35 34 34 34 34 33 33 33 33 32
37 36 35 33 31 31 31 31 31 30 30 30 31 31 31 31 31 31 32 32 32 32 32 34 35 36 37 37 37 36 37 37 37 37 37 37 37 36 35 34 34 35 36 36 36 36 36 35 36 37 38 40 40 40 40 40 40 41 41 40 40 40 40 40 40 40 40 39 39 38 38 37 37 36 35 35 35 35 35 34 34 34 34 34 34 34
39 39 37 36 34 32 31 31 32 31 31 31 32 32 32 31 31 30 30 29 29 29 29 31 32 34 35 36 35 35 35 36 37 37 37 36 36 35 34 34 34 34 35 35 36 37 37 36 36 37 38 39 40 40 40 40 40 41 41 40 40 40 40 40 40 40 40 39 39 38 38 37 37 36 35 35 35 35 35 35 35 34 34 35 35 35
39 37 37 37 36 34 32 32 33 32 32 31 32 33 33 34 32 31 29 28 28 27 27 28 29 30 32 33 33 33 33 33 35 36 36 36 35 34 33 33 33 33 34 35 36 37 37 37 37 37 38 38 39 40 40 40 40 40 40 40 40 40 40 40 40 40 40 39 39 38 38 37 37 36 36 35 35 35 35 35 35 35 35 35 35 35
37 36 35 34 34 34 33 33 34 33 31 30 30 31 33 34 34 32 30 29 28 27 26 26 27 28 29 30 31 31 31 31 32 33 34 34 34 33 32 31 31 31 32 33 34 36 37 38 38 38 38 39 39 40 40 39 39 39 40 40 40 40 41 41 41 40 40 39 38 38 37 37 36 36 36 35 35 35 35 35 35 35 35 35 35 35
36 35 34 33 33 33 31 31 31 30 29 29 29 30 31 32 31 30 30 31 30 29 27 26 26 27 29 30 31 31 31 31 32 32 32 32 32 32 31 31 30 30 30 30 32 34 36 37 38 38 38 39 40 41 41 40 39 39 39 40 40 41 41 41 41 40 39 38 38 37 37 36 36 36 35 35 35 35 35 35 35 35 35 34 34 34
35 34 33 33 33 32 31 30 30 30 29 30 30 30 30 30 29 29 30 31 31 30 29 28 28 29 30 30 31 32 32 32 32 31 31 31 31 31 30 30 30 29 29 29 30 31 32 34 35 37 38 39 41 42 42 41 39 38 39 40 40 41 41 40 40 39 38 37 37 37 37 36 36 36 36 36 36 36 36 35 35 35 34 34 34 33
36 35 33 33 32 31 31 30 31 31 31 33 33 32 31 30 30 30 29 30 30 30 29 29 30 31 31 31 31 31 31 32 32 31 31 30 30 30 29 29 30 30 29 29 29 30 30 31 33 35 38 40 42 43 43 43 40 38 38 38 40 40 40 40 39 38 37 36 36 36 36 36 36 36 37 36 36 36 36 35 35 34 34 33 33 33
36 35 34 34 33 31 31 30 31 32 32 33 32 31 30 31 31 30 29 29 29 28 26 27 28 29 31 31 30 29 29 29 30 30 29 29 29 28 28 28 29 29 30 30 29 29 29 30 32 34 37 41 43 45 45 45 42 39 37 36 38 39 39 39 38 38 37 37 37 36 36 36 36 37 37 37 37 36 36 35 34 34 34 33 33 33
36 35 34 34 34 33 32 31 32 32 32 32 32 31 30 31 31 30 29 28 27 26 25 24 25 25 25 26 27 26 26 25 26 27 27 27 27 26 26 27 27 28 29 29 29 29 29 30 31 33 36 40 43 45 47 47 45 41 38 36 36 37 38 38 38 38 38 37 37 36 36 36 36 37 37 37 37 36 36 35 34 34 34 34 34 34
38 36 35 34 34 34 32 32 31 31 31 31 30 30 30 30 30 30 29 27 26 26 26 25 24 23 23 21 22 23 22 22 23 24 25 26 26 25 24 25 26 27 27 28 28 28 28 29 31 32 34 37 40 44 46 48 47 44 41 38 37 36 36 37 37 37 37 37 37 36 36 36 36 37 37 37 37 36 36 35 35 34 34 34 34 34
37 36 36 35 35 34 33 31 30 29 28 28 27 27 28 28 28 29 29 29 28 27 27 26 25 25 25 23 22 21 20 20 21 22 24 25 25 24 23 23 24 25 26 26 26 27 27 28 29 31 32 34 36 40 44 47 47 46 44 41 39 38 37 36 36 37 37 37 37 37 36 36 36 36 37 37 37 37 36 35 35 35 35 35 34 34
37 36 36 36 35 34 33 33 32 30 29 29 28 28 28 28 27 28 29 29 29 29 28 28 27 27 27 26 24 22 21 20 21 22 23 24 24 24 24 23 24 25 25 26 25 25 25 26 28 29 30 31 33 36 40 44 48 49 48 46 44 42 40 39 38 38 37 37 38 38 38 37 37 37 37 38 37 37 36 36 36 36 35 35 35 34
36 36 36 36 35 34 33 34 33 32 31 30 30 30 29 28 28 29 30 30 30 30 30 28 29 29 28 27 25 23 22 21 21 22 24 24 24 24 24 23 24 25 26 26 26 25 25 25 26 27 28 29 31 32 35 39 44 48 50 51 50 48 46 44 43 42 41 40 40 40 40 39 39 38 38 38 37 37 37 37 36 36 36 36 35 35
35 35 35 35 35 35 36 37 35 33 33 32 31 31 31 30 30 30 31 30 30 31 31 32 31 30 29 28 27 26 24 24 24 24 23 23 23 24 24 23 24 25 26 27 26 26 25 25 26 26 27 27 28 30 31 34 37 41 46 49 51 52 51 50 49 48 47 45 44 43 42 42 41 40 40 39 38 37 37 37 37 36 36 36 35 35
37 37 36 35 35 36 37 37 36 36 35 35 34 34 35 34 33 33 32 32 31 31 32 32 32 31 29 29 28 27 26 26 26 26 24 23 24 24 23 22 23 24 26 27 27 26 26 26 26 26 26 26 26 27 28 30 32 34 38 41 45 48 50 51 51 50 49 48 46 44 44 43 43 42 41 39 38 38 38 37 37 36 36 35 35 35
36 37 37 37 36 35 35 35 35 35 35 35 36 36 36 36 35 34 33 33 32 31 31 30 29 28 27 27 28 27 27 27 27 27 26 26 25 23 21 20 21 23 26 27 27 26 26 26 26 26 25 25 25 25 25 26 28 30 32 34 37 40 42 45 46 46 46 45 45 44 43 43 43 42 41 39 38 38 37 37 36 36 35 35 34 34
33 34 34 35 35 35 35 34 33 32 32 33 33 33 34 34 34 34 33 33 32 31 30 28 27 26 26 26 26 27 27 28 28 28 28 26 25 23 22 20 21 22 25 26 26 26 25 26 26 26 25 25 24 23 23 24 25 26 28 30 32 34 36 38 39 40 41 41 41 42 42 42 42 41 40 39 38 38 37 36 36 35 35 34 33 34
30 30 31 31 32 32 32 32 32 32 32 31 31 32 32 32 32 33 33 33 32 31 30 28 27 26 25 25 25 26 26 26 27 28 28 26 25 24 23 21 21 22 24 24 25 25 25 25 26 26 25 25 24 23 22 22 22 24 25 27 29 30 32 33 34 36 37 38 39 40 40 41 40 40 39 38 37 36 36 35 35 34 33 33 32 33
29 29 28 28 29 29 30 31 31 32 32 32 32 32 31 31 31 32 33 33 32 31 30 29 27 26 25 24 24 24 23 23 25 26 27 27 26 25 24 22 21 21 22 23 24 24 24 25 25 25 25 25 24 23 21 21 21 22 24 25 27 29 30 31 33 34 35 36 37 38 38 38 38 38 37 37 36 35 34 34 33 33 33 32 32 32
31 30 30 29 29 29 29 30 31 31 32 32 32 31 31 31 32 33 34 33 31 30 30 30 29 26 24 24 23 23 22 22 23 24 25 26 26 26 25 22 21 21 21 22 22 23 23 24 24 24 24 24 24 23 22 20 20 21 23 24 26 28 29 31 32 33 34 35 35 36 36 36 36 36 35 35 34 34 33 33 32 32 32 32 32 32
33 32 31 31 30 30 30 30 31 31 31 31 31 31 31 32 33 34 34 32 30 29 30 30 29 27 25 24 23 22 22 22 23 24 24 25 26 26 25 22 21 21 20 20 20 20 22 23 24 24 24 24 24 23 22 21 20 20 22 24 26 27 28 30 30 31 32 33 34 34 34 34 34 34 34 34 33 33 33 32 32 31 31 31 31 31
34 33 32 31 31 31 31 31 31 31 31 31 31 31 31 33 34 35 34 33 31 30 30 30 29 28 26 24 22 22 22 23 23 23 24 25 26 26 24 22 21 21 20 18 17 17 19 21 22 22 22 22 22 22 22 21 20 20 21 23 25 26 27 28 29 30 32 32 33 33 33 34 33 33 33 33 33 33 32 32 32 31 31 31 31 31
33 33 33 32 31 30 30 31 31 31 32 32 31 31 31 32 34 35 35 34 33 32 31 31 30 29 27 24 22 20 20 21 22 23 24 25 25 25 23 21 21 20 20 18 16 14 14 15 17 18 19 20 20 21 21 21 21 20 21 22 24 25 26 27 28 29 30 31 32 32 33 33 33 32 32 32 32 32 32 32 31 31 31 31 31 31
33 33 33 32 32 31 31 30 30 30 31 31 32 32 32 32 33 34 35 36 36 35 34 32 30 29 28 27 25 23 21 20 20 21 24 25 25 24 22 22 21 21 20 20 19 17 14 12 12 13 15 16 18 19 20 20 20 20 21 22 24 24 24 25 26 28 29 30 31 31 32 32 32 32 32 32 32 32 32 32 31 31 31 31 31 31
32 32 32 32 32 32 32 31 31 30 30 30 31 32 33 33 34 34 35 36 37 37 37 35 33 30 28 29 29 28 25 22 20 21 23 24 24 24 22 22 22 21 21 21 21 20 18 15 13 12 12 14 16 17 18 19 19 20 21 23 24 24 24 24 25 26 27 28 29 29 30 30 31 31 31 31 31 31 32 32 32 32 32 32 31 31
32 33 33 33 33 33 33 33 33 32 31 30 30 30 31 32 34 35 35 36 37 37 38 38 36 33 30 29 29 29 28 26 23 22 23 24 25 24 23 22 22 22 21 20 20 21 21 20 17 15 13 14 15 16 17 18 18 19 20 22 24 25 26 26 25 25 26 26 27 27 28 29 29 30 30 31 31 31 32 32 32 32 32 32 32 31
33 33 34 34 34 34 34 34 34 34 33 32 31 30 30 30 31 33 34 35 36 37 38 38 38 37 35 32 30 30 29 28 26 24 25 26 27 26 25 24 22 22 21 21 20 20 20 20 19 17 15 14 14 15 17 18 18 19 20 22 24 25 27 27 27 26 26 25 26 26 27 27 28 29 29 30 31 31 31 32 32 33 33 33 33 32
31 31 30 31 32 33 34 35 35 35 35 34 33 32 31 30 29 30 31 32 34 36 37 38 38 38 38 37 35 34 32 30 28 26 27 28 28 28 26 25 23 22 22 22 21 21 20 20 20 19 18 16 15 15 16 17 18 19 20 21 23 24 26 27 28 28 27 27 26 26 26 26 26 27 28 29 30 30 31 31 32 32 33 33 33 33
27 27 27 28 29 30 32 33 34 35 35 35 35 34 33 32 30 29 28 29 31 33 35 36 37 38 38 38 38 37 35 33 30 28 28 29 29 29 28 27 26 25 24 23 22 21 21 20 20 19 19 18 17 15 14 15 16 18 19 21 22 23 24 25 26 28 29 28 28 28 27 26 27 27 28 29 30 30 30 31 31 32 32 33 34 34
26 25 26 26 27 29 30 32 33 34 35 35 35 35 35 34 32 30 29 28 29 30 32 34 35 36 37 37 37 38 37 36 33 31 30 30 30 30 30 29 27 25 26 24 23 22 22 21 20 19 19 19 19 17 15 15 15 17 18 19 21 22 23 24 25 26 28 28 29 29 28 28 27 27 28 28 29 29 30 31 31 32 32 33 34 35
26 26 26 27 27 27 28 30 31 32 33 33 34 34 35 34 33 32 31 30 29 29 30 32 33 35 35 35 35 35 36 36 35 34 33 32 31 31 31 30 29 27 27 27 26 24 23 23 22 21 19 19 19 18 17 16 16 17 17 18 19 21 22 23 24 25 27 27 28 28 28 28 27 27 27 28 28 29 30 31 31 31 32 32 34 35
25 25 25 26 26 25 26 27 29 30 31 32 33 33 34 34 33 32 32 31 30 30 30 30 31 32 33 33 33 33 33 34 34 35 35 34 34 33 33 32 31 30 29 28 28 27 26 25 24 23 21 20 19 19 18 18 17 17 17 18 18 20 21 22 24 25 26 27 27 27 27 27 26 26 26 27 27 28 28 29 29 30 30 31 32 34
26 26 26 25 25 25 26 27 27 28 29 30 32 32 33 33 33 32 32 31 31 30 30 30 30 30 31 31 32 32 32 32 32 33 34 34 35 35 35 34 33 32 30 29 29 29 28 27 26 25 24 23 21 20 19 19 19 18 18 19 19 19 20 21 22 24 25 26 27 27 27 26 26 26 26 26 27 27 27 27 27 27 27 28 29 30
27 26 26 25 25 25 26 26 26 27 28 30 31 32 33 33 33 32 32 31 31 31 30 29 29 29 30 30 30 30 30 30 30 30 31 32 34 35 36 36 35 34 32 31 30 30 29 28 28 27 26 25 23 21 21 20 20 20 20 20 19 19 19 20 21 22 23 24 25 25 25 25 26 26 26 26 26 26 26 26 26 26 26 26 27 27
26 26 25 25 25 25 25 24 25 26 27 29 31 32 33 33 32 32 31 31 31 31 30 29 29 28 28 28 29 29 29 29 29 29 29 30 31 32 34 35 36 36 35 33 32 31 30 30 29 29 28 26 24 24 22 20 20 20 21 21 20 19 18 19 20 21 22 23 24 24 24 25 25 25 25 25 26 26 26 26 26 26 26 26 26 26
27 26 25 25 25 25 24 24 25 26 27 29 30 32 32 32 32 31 31 30 30 30 30 29 28 27 26 27 27 27 28 28 28 28 28 29 29 30 31 33 34 36 36 36 34 32 31 30 30 30 29 27 26 25 23 22 21 21 21 21 21 21 21 20 20 20 21 22 23 23 24 24 24 24 24 24 25 25 25 26 26 26 26 26 27 27
26 26 26 26 26 26 25 25 25 25 25 27 29 30 31 31 31 31 30 30 30 29 29 28 27 25 25 25 25 25 25 25 26 27 27 27 28 28 29 30 32 34 35 36 36 34 32 31 30 29 28 28 28 27 26 23 22 22 21 22 22 22 23 22 20 20 20 21 22 23 23 24 23 23 23 24 25 25 25 26 26 26 27 27 27 28
23 24 25 25 25 25 25 24 24 24 25 27 28 29 29 30 30 30 30 29 29 28 28 27 26 24 24 24 23 23 22 23 24 25 26 26 27 27 27 28 30 32 34 36 36 36 34 33 31 28 27 27 27 28 28 26 24 24 23 22 22 23 23 23 22 22 22 22 22 22 23 22 22 23 24 25 25 25 26 26 26 27 27 28 28 28
23 24 24 23 23 23 23 23 23 24 25 26 27 27 27 28 28 29 29 29 28 28 27 27 26 25 24 23 22 21 21 21 21 22 23 24 25 26 27 28 29 30 31 33 35 36 37 36 33 30 27 26 26 27 27 27 26 26 25 24 23 23 23 23 23 23 24 24 23 23 22 22 23 24 25 25 25 26 26 26 27 28 28 28 28 29
22 23 22 22 22 22 22 21 21 22 24 26 26 27 26 27 28 28 28 28 28 27 27 26 25 25 25 24 23 22 21 21 21 21 21 23 24 25 26 27 27 28 29 31 32 34 35 35 34 32 30 28 27 26 26 26 26 27 27 26 25 25 24 24 24 24 24 25 25 25 24 24 24 24 25 25 25 26 26 27 28 29 29 29 29 30
21 22 22 22 22 22 21 21 20 21 23 24 25 26 27 27 28 28 29 29 28 27 27 27 26 25 25 24 24 23 22 21 21 20 20 21 22 23 24 25 25 26 27 29 31 32 33 33 33 34 34 33 31 28 26 24 25 26 26 26 26 26 25 25 25 24 24 25 26 26 26 26 26 26 26 26 26 26 27 28 28 29 30 31 31 31
22 22 22 22 23 22 22 21 20 20 21 22 23 25 26 27 28 29 29 29 28 28 28 28 27 26 25 24 24 23 22 21 21 20 20 21 21 22 22 23 24 24 25 26 28 29 30 30 31 33 34 35 34 32 29 26 25 24 25 26 26 26 26 26 26 26 25 25 26 26 27 28 28 28 28 28 28 27 28 28 29 30 30 31 31 31
22 23 23 23 22 22 21 20 19 19 19 20 22 24 25 26 27 28 29 29 28 28 28 28 27 26 25 24 23 23 22 21 21 21 21 21 21 21 22 22 22 22 23 23 24 24 24 25 26 28 31 35 36 35 34 32 29 27 26 26 25 25 26 26 26 26 26 25 26 26 27 28 28 29 30 30 29 29 29 30 30 31 31 31 31 32
Wind_Direction
274 274 274 272 271 270 269 266 265 266 267 266 264 264 267 269 269 269 271 273 274 276 278 278 278 276 275 274 274 275 276 277 278 278 277 275 272 267 263 258 253 248 243 240 238 237 237 237 237 236 235 234 233 233 232 232 232 232 232 232 233 233 233 234 234 234 235 235 235 235 235 235 234 234 234 234 234 235 235 235 235 235 235 235 234 234
274 274 274 272 270 269 268 268 266 265 266 266 264 262 264 266 267 267 269 271 273 275 277 279 279 277 275 273 272 271 272 273 275 276 276 276 274 270 265 259 254 249 244 240 237 235 235 236 237 236 235 234 234 233 233 232 232 232 232 232 232 233 233 234 234 234 235 235 235 235 234 234 233 233 233 233 234 234 234 234 234 234 234 234 234 234
273 274 273 272 269 267 267 268 267 265 266 266 265 263 263 264 264 264 265 266 269 272 275 279 281 281 278 276 273 271 270 270 271 272 274 274 274 272 267 261 255 250 245 242 238 235 233 234 236 236 236 235 234 234 233 233 233 233 233 233 233 233 233 234 234 234 234 234 234 234 234 233 233 233 233 233 233 234 234 234 234 234 234 234 234 235
272 272 272 272 270 267 267 268 267 266 266 266 267 266 264 263 262 263 263 264 266 268 271 277 281 283 281 279 276 273 271 270 270 271 272 272 273 271 269 263 257 250 246 243 241 237 234 233 234 235 235 235 234 234 234 234 233 233 233 233 233 233 233 234 234 234 234 234 234 234 233 233 233 233 233 233 233 233 233 233 233 233 234 234 234 234
270 269 270 271 270 268 268 267 266 266 265 265 266 267 266 264 263 263 264 264 264 266 269 275 280 282 282 280 279 277 275 273 272 272 272 272 271 270 268 264 258 252 247 243 241 239 237 234 233 234 235 234 234 234 234 234 234 234 234 233 233 233 234 234 234 234 234 234 233 233 233 233 234 234 233 233 232 232 232 232 233 233 233 233 233 233
268 268 269 269 268 268 268 267 265 265 265 265 265 266 267 267 267 267 266 265 265 266 269 273 277 280 281 280 280 279 278 276 275 274 273 272 271 270 268 264 259 254 248 244 242 240 239 236 233 233 234 234 234 234 233 233 233 233 233 234 234 234 234 234 233 233 233 233 233 233 233 233 233 233 232 232 231 231 231 231 232 232 232 232 232 233
267 267 268 268 267 267 266 265 264 264 263 264 265 266 267 269 269 269 269 269 268 268 269 272 275 278 279 279 279 279 278 277 276 275 274 273 272 271 268 264 260 255 250 246 243 241 240 238 235 234 233 234 234 235 234 233 233 233 233 233 233 234 233 233 233 233 232 232 232 232 233 233 232 232 231 231 230 230 230 230 230 230 230 230 231 232
266 267 267 266 265 265 265 264 263 263 262 262 264 265 267 269 270 271 272 273 272 271 270 272 274 276 276 277 277 277 276 276 276 275 275 274 274 272 270 266 262 257 252 248 244 241 240 239 237 235 234 234 234 235 235 235 234 234 233 233 233 233 233 233 232 232 232 232 232 232 232 232 232 231 231 230 230 230 230 229 229 228 229 229 230 231
263 265 265 264 263 263 263 264 264 263 262 262 263 264 265 267 270 272 273 273 272 271 271 271 273 275 276 276 276 275 275 275 275 275 275 275 275 274 272 269 264 260 255 250 246 243 241 239 238 236 235 234 234 235 235 235 235 234 234 233 233 233 232 232 231 231 231 231 231 232 232 231 231 230 230 230 230 230 229 229 229 228 228 228 229 231
261 262 263 263 262 261 261 262 264 264 263 263 263 264 265 265 267 269 270 270 270 271 270 270 272 274 276 276 276 275 274 275 276 277 277 277 277 276 274 271 267 262 257 253 248 244 241 239 238 236 235 234 233 234 235 235 235 234 234 233 233 232 232 231 231 230 230 230 230 231 231 231 230 230 230 230 230 230 229 229 229 229 229 229 230 231
260 260 261 262 262 261 260 261 262 263 263 263 264 265 265 265 265 265 265 266 268 268 268 268 269 271 273 275 275 275 275 275 277 278 280 280 280 279 277 273 269 265 261 256 251 246 242 240 238 236 235 234 234 233 234 234 235 234 233 233 232 231 231 230 230 230 229 229 229 229 229 229 230 230 230 231 231 231 230 230 230 230 230 230 231 232
258 259 260 260 261 261 260 260 261 261 260 260 260 262 263 265 264 263 262 263 265 266 265 266 266 268 269 271 273 274 274 274 275 277 280 281 282 281 278 275 272 268 263 259 254 249 244 240 237 236 235 234 233 232 233 233 234 233 232 232 231 230 230 230 229 229 229 229 228 228 229 229 230 230 231 231 231 231 231 231 230 230 230 231 232 233
257 258 258 258 258 258 258 258 258 258 255 254 254 255 258 262 263 262 261 262 264 264 265 264 265 266 267 269 271 272 273 274 275 276 278 279 279 279 277 275 272 269 265 261 257 252 248 243 238 235 234 233 231 231 231 232 233 233 232 231 230 229 229 229 228 228 228 228 228 228 229 230 230 231 232 232 232 232 231 231 231 231 231 232 233 234
256 256 256 256 256 256 255 255 254 253 251 252 253 254 257 259 260 259 259 261 263 265 265 264 264 265 267 268 270 271 272 273 275 275 275 275 276 276 275 273 271 269 266 262 258 254 251 246 241 237 233 232 230 229 228 229 230 232 231 230 229 228 228 228 227 227 227 227 228 229 230 231 232 232 232 232 232 232 231 232 232 232 233 233 234 234
254 254 253 253 253 254 254 253 252 251 252 253 254 255 256 257 256 255 256 257 261 263 264 264 265 267 268 268 270 271 272 273 274 274 273 274 274 274 273 271 270 269 267 263 260 256 253 248 243 239 235 232 229 228 226 225 227 230 231 230 229 228 227 227 227 227 227 228 229 230 231 232 232 232 232 231 231 231 231 231 232 233 233 233 234 234
253 252 251 252 253 253 253 252 251 251 253 254 253 253 253 252 253 253 253 255 258 260 260 261 264 266 269 271 272 272 271 271 272 272 271 272 273 273 271 269 268 267 266 264 262 258 255 250 245 241 237 234 230 227 224 223 225 227 229 229 228 228 227 227 228 228 229 230 231 232 233 233 232 231 230 230 230 230 230 231 232 233 232 233 233 234
252 251 251 252 252 253 253 252 251 251 252 252 252 251 250 251 252 252 252 254 255 256 256 257 259 262 267 271 272 271 269 268 269 270 271 270 272 273 271 268 266 266 266 265 263 260 257 253 249 245 241 237 233 229 225 223 224 226 228 228 227 227 227 228 228 229 230 231 232 233 234 234 232 230 229 229 229 229 230 231 231 232 232 232 233 233
252 251 251 251 251 252 253 252 251 250 250 250 250 250 250 250 251 251 251 251 251 252 254 254 255 257 261 265 268 269 267 265 266 268 269 270 271 273 271 268 267 266 266 266 264 262 260 257 253 250 246 243 238 232 228 225 225 226 228 228 228 227 227 227 228 230 231 231 232 233 234 234 232 230 229 228 228 229 229 230 230 230 231 232 232 232
252 251 251 250 251 252 252 251 249 248 247 247 247 247 248 248 249 249 250 250 250 250 251 253 254 255 258 260 264 266 264 263 263 264 265 267 270 271 270 267 267 267 267 266 265 264 263 261 259 256 253 249 244 238 232 229 228 228 229 230 230 229 229 229 229 230 231 232 232 233 233 233 232 230 229 228 228 229 229 229 229 230 230 231 231 231
253 252 251 251 251 252 252 251 250 248 247 247 247 247 246 247 248 248 249 250 251 251 252 252 253 255 257 259 262 263 261 260 260 260 261 264 267 269 268 265 264 265 266 267 267 266 265 264 263 261 259 255 250 245 239 234 232 230 231 232 233 233 233 232 232 232 233 233 233 233 234 234 233 231 229 229 228 228 228 229 229 229 229 230 230 231
258 256 254 253 252 252 251 252 252 250 249 248 247 246 247 247 248 249 250 252 252 252 252 251 252 256 258 259 260 260 258 255 253 255 259 262 264 265 265 263 262 263 265 268 269 269 268 267 266 265 263 260 257 252 247 243 238 235 234 234 234 235 235 235 235 236 236 236 236 235 235 235 234 232 230 229 228 228 228 228 228 229 229 230 230 231
268 266 264 260 256 253 254 255 255 254 252 249 247 246 247 247 248 249 252 253 253 252 252 253 255 259 261 261 260 260 258 254 253 254 256 258 259 261 263 261 261 262 264 267 269 270 270 269 269 268 267 265 262 258 254 250 246 242 239 238 237 237 237 237 238 238 238 238 238 237 237 236 234 232 230 229 228 228 228 228 228 228 229 230 231 232
273 274 273 270 266 262 260 259 259 257 255 252 251 250 252 252 252 253 255 256 255 255 256 258 260 262 261 260 260 259 256 254 255 255 253 252 255 259 262 260 259 261 263 266 269 270 271 271 271 272 271 269 266 262 258 254 250 247 244 242 240 240 239 239 239 238 238 238 237 237 236 234 232 230 229 228 227 227 227 227 227 228 229 230 231 233
275 275 275 275 274 272 271 269 266 264 261 259 258 258 259 259 259 260 261 260 259 258 258 259 259 258 256 256 256 255 254 253 253 253 252 252 254 257 258 257 256 259 262 266 268 269 270 271 273 274 274 272 269 265 260 256 252 248 246 243 242 241 240 239 238 237 236 235 235 234 233 231 229 228 227 226 226 226 226 226 227 228 229 230 232 234
276 276 277 277 278 278 278 277 276 273 270 268 266 265 265 264 264 263 262 260 257 256 254 253 252 251 252 253 252 252 252 252 251 249 249 250 252 255 255 254 254 256 261 265 267 268 268 270 271 273 274 274 272 268 262 257 252 248 245 243 241 240 239 237 235 233 231 231 231 231 230 228 226 225 225 225 225 225 225 226 226 228 229 231 233 235
278 278 277 277 277 278 279 279 279 278 277 275 274 272 270 268 266 263 259 256 253 251 250 249 248 249 251 250 250 250 250 249 248 248 248 248 250 253 254 253 253 255 258 262 263 264 265 267 269 271 271 273 273 271 264 258 252 248 244 241 238 236 235 233 231 229 228 228 228 228 227 225 224 223 223 223 223 224 224 225 227 228 230 232 234 237
279 277 274 272 271 272 273 274 275 276 276 275 274 273 272 269 264 259 254 253 251 249 246 245 246 248 249 248 248 248 248 246 245 245 247 248 249 251 253 252 252 253 256 258 260 261 262 264 266 268 269 271 273 272 267 261 254 248 243 238 235 232 230 228 226 225 226 226 227 226 224 222 221 221 222 222 222 223 224 225 227 229 231 233 236 238
280 277 273 269 266 265 265 266 267 269 270 270 270 269 267 264 258 254 253 254 252 248 244 243 244 245 246 246 247 248 246 244 243 243 244 245 246 249 252 252 251 251 253 256 259 260 261 262 264 265 266 268 270 271 269 264 256 249 242 236 232 228 226 224 222 222 223 223 223 222 220 220 220 220 221 221 222 223 225 226 228 230 232 234 237 239
283 281 278 273 268 264 261 260 259 260 261 262 262 261 259 256 253 253 254 255 251 245 242 242 243 244 245 246 248 248 246 244 243 242 242 242 244 248 252 252 250 249 251 254 257 260 259 260 260 261 262 264 267 269 269 265 258 249 242 236 230 226 223 221 220 220 220 220 219 219 218 218 219 220 221 222 223 224 226 227 229 231 233 235 237 238
284 284 283 280 277 272 266 261 258 256 255 255 256 254 252 250 250 252 254 253 248 243 242 242 243 244 244 245 246 247 246 245 242 240 240 239 242 246 250 249 248 247 248 250 254 258 259 259 259 259 260 261 262 264 266 265 259 251 242 235 229 225 222 220 219 218 218 218 218 218 218 219 220 221 222 223 224 225 227 228 230 231 233 235 236 237
283 284 284 284 282 279 275 269 264 260 256 254 253 251 248 248 249 250 251 249 246 244 243 243 243 243 242 240 241 242 245 244 241 239 238 238 241 245 247 246 246 246 245 244 246 252 260 262 260 259 259 258 257 258 260 262 259 252 242 234 228 224 222 220 219 218 218 218 218 218 219 220 221 222 223 224 225 226 228 229 230 231 233 234 235 237
281 281 281 282 282 281 279 276 272 267 262 258 254 252 250 248 248 249 249 249 247 246 245 244 243 242 241 239 239 240 243 244 241 237 236 237 240 243 246 245 245 246 246 244 243 246 254 261 262 259 256 254 252 252 253 256 256 251 243 234 228 223 221 219 218 219 219 219 220 220 221 222 223 224 225 226 227 228 229 229 230 231 232 233 235 236
279 279 279 279 279 278 278 277 276 273 269 265 260 256 253 251 249 249 249 250 249 248 247 245 244 242 241 241 241 242 244 244 241 238 237 237 238 241 244 244 244 245 246 245 244 245 247 252 258 259 255 251 248 247 247 250 251 249 243 235 228 223 220 218 217 218 219 220 221 222 223 224 225 226 227 227 228 229 230 230 230 230 231 233 235 236
276 276 276 275 275 275 275 276 276 275 273 270 267 263 259 255 253 251 250 250 250 250 249 248 246 243 242 241 242 244 244 243 241 239 237 238 239 240 241 242 243 243 243 243 243 244 245 247 250 253 254 251 247 245 243 244 245 246 243 236 230 225 221 218 216 216 217 219 220 221 223 224 226 227 228 229 230 230 231 231 231 231 231 233 234 236
273 272 271 271 271 271 272 273 273 274 273 273 271 269 266 262 259 255 253 251 251 251 251 251 250 248 246 243 243 244 245 245 243 239 237 238 239 240 240 239 240 240 240 241 241 242 243 245 245 246 249 249 248 245 243 242 242 243 242 238 233 229 225 222 219 217 217 218 219 220 222 223 224 226 227 228 229 230 231 231 232 232 232 233 235 236
267 266 265 265 265 266 268 270 271 271 272 272 272 272 270 268 266 263 259 255 253 252 252 252 253 252 251 249 247 247 247 248 245 241 238 237 238 238 238 238 238 239 239 239 240 240 241 244 244 244 243 244 245 246 245 243 242 241 240 238 235 231 229 226 224 221 219 219 218 219 220 221 222 224 225 226 227 228 230 231 232 233 233 234 235 236
265 263 263 262 263 264 266 268 269 270 270 271 271 271 271 271 270 268 265 261 257 254 253 253 253 254 254 253 253 252 251 250 247 243 239 239 239 238 238 239 240 240 238 238 239 239 241 242 243 243 241 240 241 242 241 241 239 238 238 238 236 233 230 228 226 225 223 221 220 220 220 220 221 223 224 225 227 228 229 230 232 232 233 234 235 235
267 268 267 266 266 265 265 266 267 268 269 269 270 270 271 271 271 270 268 265 261 257 255 253 253 253 254 255 255 255 255 253 249 245 242 240 239 239 239 240 240 240 240 239 239 239 239 238 238 239 239 240 240 240 238 236 235 234 235 237 236 234 232 229 227 226 225 224 222 222 222 222 223 225 227 229 230 231 232 233 233 234 234 235 235 235
271 272 271 270 268 266 264 264 266 267 269 269 270 270 271 271 270 269 267 266 263 260 257 255 254 254 254 255 256 257 256 255 253 249 245 242 240 240 240 240 240 241 242 242 241 239 237 236 236 236 237 238 239 237 236 233 232 232 234 235 236 235 233 230 228 227 226 225 224 224 224 225 226 228 230 233 235 236 237 238 239 239 238 238 237 237
271 270 270 269 267 265 263 263 264 267 269 270 270 270 270 269 269 268 266 265 263 261 259 257 256 255 255 255 256 256 257 256 256 253 250 246 243 242 241 241 241 242 242 242 241 239 237 235 236 237 237 237 236 235 233 232 230 230 231 230 230 232 234 233 231 229 228 228 227 227 228 229 230 232 234 236 238 240 242 243 244 245 244 242 241 240
270 269 268 267 266 265 264 264 265 266 267 268 268 267 266 265 264 264 264 263 262 261 260 258 256 255 256 256 256 256 256 256 256 255 254 251 248 245 244 243 243 243 242 241 240 239 237 235 235 236 236 236 235 234 233 231 229 228 228 228 229 232 235 236 235 234 233 233 233 234 235 235 236 237 238 240 242 244 245 246 246 247 247 246 244 241
270 268 267 266 265 265 265 265 265 265 265 265 264 263 263 262 261 260 260 260 259 259 258 256 254 253 253 254 256 257 257 256 256 256 255 254 251 249 247 245 244 243 242 240 239 239 238 237 236 235 235 235 234 233 234 233 231 229 228 229 231 233 235 236 237 238 237 238 240 241 241 241 241 242 242 243 244 246 248 248 247 246 246 245 244 243
269 267 266 265 265 265 265 265 265 264 263 262 261 262 262 261 260 258 257 257 257 258 257 256 254 252 250 250 252 255 257 258 258 257 256 255 254 252 250 248 246 244 242 240 239 239 239 238 237 236 236 235 234 233 233 232 231 229 228 229 229 227 225 228 233 236 239 241 243 244 245 245 245 246 245 245 245 246 247 246 246 246 244 243 243 243
269 268 266 264 263 264 264 264 263 262 260 260 260 260 261 260 259 257 255 255 255 256 256 255 254 252 248 247 248 250 254 257 259 258 257 256 256 254 252 250 249 247 244 241 239 239 239 238 237 237 237 236 234 233 232 231 231 230 229 228 227 226 225 226 228 231 234 239 243 245 247 247 248 247 246 245 245 245 244 244 244 244 243 243 242 243
269 269 267 266 265 264 263 262 261 259 257 258 258 259 259 259 257 255 253 252 252 252 251 251 249 247 244 244 245 246 248 252 256 258 258 257 256 255 253 251 250 247 245 242 240 239 239 238 238 238 238 236 235 234 233 232 231 231 231 230 229 230 231 231 230 229 230 234 239 243 247 248 248 246 244 244 244 244 243 242 242 241 242 242 243 243
271 270 270 269 267 265 263 261 260 258 256 256 256 256 256 256 255 254 253 251 250 249 248 247 244 241 240 241 242 242 242 244 248 252 255 256 256 254 252 251 250 248 246 244 242 241 239 239 239 238 237 236 235 234 234 233 233 233 232 232 231 231 232 232 231 230 230 232 236 240 243 245 244 243 242 243 243 244 243 242 242 242 242 243 243 244
274 274 273 271 269 266 264 262 259 257 255 254 253 253 252 252 252 251 251 250 248 246 245 243 241 239 239 240 240 239 238 239 241 244 248 252 254 254 251 250 249 248 246 245 243 242 242 241 240 239 237 235 234 234 234 235 234 234 234 234 233 232 232 232 231 232 232 233 235 236 238 239 239 239 241 242 243 244 244 243 243 243 244 244 244 245
278 277 275 273 270 268 266 263 259 256 255 254 253 252 250 249 249 249 249 249 247 244 241 239 237 237 239 239 239 239 238 238 239 240 243 246 249 251 251 249 248 246 245 245 245 244 244 243 241 239 237 236 235 235 235 235 235 236 237 237 236 235 234 234 234 234 235 235 236 237 237 236 235 237 240 241 242 243 244 245 245 246 246 246 246 246
280 279 278 275 272 270 268 265 261 257 254 252 252 252 250 250 249 248 248 248 246 243 239 236 235 236 237 238 239 239 239 239 239 240 241 243 245 247 248 248 246 245 244 243 243 243 243 242 241 240 239 238 237 237 237 237 237 237 238 238 238 237 236 237 237 237 237 238 239 240 239 239 239 240 240 241 242 243 245 246 247 247 248 248 248 249
282 281 280 278 275 273 271 267 263 259 255 252 250 250 250 249 248 247 247 246 244 242 239 237 235 235 235 237 238 239 238 238 239 239 239 241 242 243 244 245 244 243 241 240 239 238 238 238 238 239 239 239 238 238 238 238 237 237 238 238 238 238 239 239 240 240 239 240 242 243 243 243 243 243 242 242 242 244 246 247 248 249 250 250 251 251
281 281 281 279 277 274 272 269 265 261 257 254 251 250 248 247 246 245 244 242 241 239 238 237 236 235 235 236 238 238 238 238 238 239 239 240 240 240 241 242 241 239 236 234 233 232 231 232 233 235 237 238 239 239 238 238 237 237 237 238 238 238 239 240 242 243 243 243 244 245 245 245 245 244 243 243 243 245 247 248 249 249 251 251 251 252